0 HST 1 20580U 90037B 25284.46046855 .00008954 00000-0 32157-3 0 9990 2 20580 28.4700 336.0150 0001803 258.0069 102.0324 15.26851369750468 0 ISS (ZARYA) 1 25544U 98067A 25284.94629524 .00014189 00000-0 25739-3 0 9994 2 25544 51.6327 88.4008 0000800 248.3312 111.7592 15.49860174533276 0 CXO 1 25867U 99040B 25283.14864612 .00000910 00000-0 00000-0 0 9992 2 25867 51.8364 124.8711 8250234 310.5442 0.1878 0.37810077 16378